Change the Weather History Date:

Wednesday, March 6, 2013

  Actual Average (KUIN) Record (KUIN)
Temperature  
Mean Temperature 28 °F 38 °F  
Max Temperature 33 °F 47 °F 81 °F (1956)
Min Temperature 22 °F 29 °F -7 °F (1960)
Degree Days  
Heating Degree Days 38 27  
Month to date heating degree days 169  
Since 1 July heating degree days 4511  
Cooling Degree Days 0 0  
Month to date cooling degree days 0  
Year to date cooling degree days 0  
Moisture  
Dew Point 22 °F    
Average Humidity 74    
Maximum Humidity 85    
Minimum Humidity 65    
Precipitation  
Precipitation 0.00 in 0.07 in 2.22 in (1973)
Month to date precipitation 0.47  
Year to date precipitation 3.87  
Sea Level Pressure  
Sea Level Pressure 30.32 in    
Wind  
Wind Speed 13 mph (NW)    
Max Wind Speed 21 mph    
Max Gust Speed 26 mph    
Visibility 10 miles    
Events      
T = Trace of Precipitation, MM = Missing Value Source: NWS Daily Summary

Daily Weather History Graph

Daily Weather History Graph

Search for Another Location

Airport or City:

Trip Planner

Search our weather history database for the weather conditions in past years. The results will help you decide how hot, cold, wet, or windy it might be!

Date:

Astronomy

Mar. 06, 2013 Rise Set
Actual Time 6:28 AM CST 6:00 PM CST
Civil Twilight 6:01 AM CST 6:27 PM CST
Nautical Twilight 5:30 AM CST 6:59 PM CST
Astronomical Twilight 4:58 AM CST 7:30 PM CST
Moon 2:36 AM CST (3/6) 12:43 PM CST (3/6)
Length of Visible Light 12h 26m
Length of Day
11h 32m
Waning Crescent, 29% of the Moon is Illuminated
Mar 6
Waning Crescent
Mar 11
New
Mar 19
First Quarter
Mar 27
Full
Apr 2
Last Quarter

Hourly Weather History & Observations

Time (CST) Temp. Windchill Dew Point Humidity Pressure Visibility Wind Dir Wind Speed Gust Speed Precip Events Conditions
12:15 AM 31.1 °F 20.5 °F 23.0 °F 72% 30.15 in 10.0 mi NW 15.0 mph 21.9 mph N/A   Overcast
12:35 AM 31.1 °F 20.5 °F 23.5 °F 74% 30.16 in 10.0 mi NW 15.0 mph 24.2 mph N/A   Overcast
12:55 AM 31.1 °F 20.1 °F 23.5 °F 74% 30.17 in 10.0 mi NW 16.1 mph 23.0 mph N/A   Overcast
1:15 AM 30.9 °F 19.4 °F 23.5 °F 74% 30.18 in 10.0 mi NW 17.3 mph 21.9 mph N/A   Overcast
1:35 AM 30.7 °F 20.0 °F 23.7 °F 75% 30.19 in 10.0 mi NW 15.0 mph 21.9 mph N/A   Overcast
1:55 AM 30.6 °F 20.7 °F 23.9 °F 76% 30.20 in 10.0 mi NW 12.7 mph 19.6 mph N/A   Overcast
2:15 AM 30.4 °F 20.5 °F 23.9 °F 77% 30.20 in 10.0 mi NW 12.7 mph 24.2 mph N/A   Overcast
2:35 AM 30.2 °F 20.8 °F 24.3 °F 79% 30.20 in 10.0 mi NW 11.5 mph - N/A   Overcast
2:55 AM 30.4 °F 18.7 °F 24.1 °F 77% 30.20 in 10.0 mi NW 17.3 mph 21.9 mph N/A   Overcast
3:15 AM 30.2 °F 19.8 °F 24.3 °F 79% 30.21 in 10.0 mi NW 13.8 mph 20.7 mph N/A   Overcast
3:35 AM 30.2 °F 18.9 °F 23.9 °F 77% 30.22 in 10.0 mi NW 16.1 mph 23.0 mph N/A   Overcast
3:55 AM 30.2 °F 17.8 °F 23.7 °F 77% 30.23 in 10.0 mi NW 19.6 mph 24.2 mph N/A   Overcast
4:15 AM 30.2 °F 18.5 °F 23.9 °F 77% 30.25 in 10.0 mi NW 17.3 mph - N/A   Overcast
4:35 AM 30.2 °F 19.3 °F 23.9 °F 77% 30.26 in 10.0 mi NNW 15.0 mph 21.9 mph N/A   Overcast
4:55 AM 30.0 °F 19.5 °F 23.7 °F 77% 30.27 in 10.0 mi NNW 13.8 mph - N/A   Overcast
5:15 AM 30.0 °F 18.3 °F 23.4 °F 76% 30.27 in 10.0 mi NW 17.3 mph 21.9 mph N/A   Overcast
5:35 AM 29.8 °F 19.3 °F 23.0 °F 76% 30.28 in 10.0 mi NW 13.8 mph - N/A   Overcast
5:55 AM 29.7 °F 18.6 °F 22.8 °F 76% 30.30 in 10.0 mi NW 15.0 mph - N/A   Overcast
6:15 AM 29.3 °F 17.7 °F 23.0 °F 77% 30.30 in 10.0 mi NW 16.1 mph 23.0 mph N/A   Overcast
6:35 AM 29.1 °F 17.9 °F 23.0 °F 78% 30.31 in 10.0 mi NNW 15.0 mph - N/A   Overcast
6:55 AM 28.9 °F 18.6 °F 22.5 °F 77% 30.31 in 10.0 mi NW 12.7 mph 17.3 mph N/A   Overcast
7:15 AM 28.4 °F 17.5 °F 22.3 °F 78% 30.32 in 10.0 mi NW 13.8 mph - N/A   Overcast
7:35 AM 28.4 °F 15.8 °F 21.9 °F 77% 30.33 in 10.0 mi NNW 18.4 mph 24.2 mph N/A   Overcast
7:55 AM 28.4 °F 15.4 °F 21.9 °F 77% 30.34 in 10.0 mi NW 19.6 mph 23.0 mph N/A   Overcast
8:15 AM 28.8 °F 16.6 °F 21.7 °F 75% 30.34 in 10.0 mi NW 17.3 mph 20.7 mph N/A   Mostly Cloudy
8:35 AM 29.1 °F 18.9 °F 21.7 °F 74% 30.35 in 10.0 mi NW 12.7 mph - N/A   Clear
8:55 AM 29.3 °F 18.2 °F 21.9 °F 74% 30.36 in 10.0 mi NW 15.0 mph 19.6 mph N/A   Scattered Clouds
9:15 AM 29.7 °F 18.2 °F 22.1 °F 73% 30.36 in 10.0 mi NNW 16.1 mph - N/A   Scattered Clouds
9:35 AM 30.2 °F 18.1 °F 21.7 °F 71% 30.36 in 10.0 mi NNW 18.4 mph 26.5 mph N/A   Scattered Clouds
9:55 AM 30.6 °F 17.9 °F 21.7 °F 70% 30.36 in 10.0 mi NNW 20.7 mph 25.3 mph N/A   Mostly Cloudy
10:15 AM 30.9 °F 19.4 °F 22.6 °F 71% 30.36 in 10.0 mi NNW 17.3 mph 25.3 mph N/A   Mostly Cloudy
10:35 AM 30.9 °F 19.1 °F 22.3 °F 70% 30.36 in 10.0 mi NNW 18.4 mph - N/A   Mostly Cloudy
10:55 AM 31.3 °F 20.3 °F 22.3 °F 69% 30.37 in 10.0 mi NNW 16.1 mph - N/A   Mostly Cloudy
11:15 AM 31.3 °F 20.3 °F 21.9 °F 68% 30.37 in 10.0 mi NW 16.1 mph 20.7 mph N/A   Overcast
11:35 AM 31.8 °F 24.6 °F 21.9 °F 67% 30.37 in 10.0 mi NW 8.1 mph 11.5 mph N/A   Scattered Clouds
11:55 AM 32.2 °F 24.4 °F 22.6 °F 68% 30.37 in 10.0 mi WNW 9.2 mph - N/A   Scattered Clouds
12:15 PM 32.4 °F 23.5 °F 22.5 °F 67% 30.36 in 10.0 mi NW 11.5 mph - N/A   Mostly Cloudy
12:35 PM 32.7 °F 24.5 °F 22.3 °F 65% 30.36 in 10.0 mi WNW 10.4 mph - N/A   Mostly Cloudy
12:55 PM 32.7 °F 25.7 °F 22.1 °F 65% 30.35 in 10.0 mi WNW 8.1 mph - N/A   Overcast
1:15 PM 32.5 °F 25.5 °F 22.3 °F 66% 30.35 in 10.0 mi West 8.1 mph - N/A   Overcast
1:35 PM 32.7 °F 26.4 °F 22.3 °F 65% 30.35 in 10.0 mi WNW 6.9 mph - N/A   Overcast
1:55 PM 32.0 °F 25.6 °F 22.1 °F 67% 30.35 in 10.0 mi WNW 6.9 mph - N/A   Mostly Cloudy
2:15 PM 32.2 °F 25.0 °F 21.9 °F 66% 30.34 in 10.0 mi NW 8.1 mph - N/A   Mostly Cloudy
2:35 PM 32.0 °F 24.8 °F 22.1 °F 67% 30.35 in 10.0 mi NW 8.1 mph - N/A   Mostly Cloudy
2:55 PM 32.4 °F 25.3 °F 22.6 °F 67% 30.35 in 10.0 mi NW 8.1 mph - N/A   Mostly Cloudy
3:15 PM 32.4 °F 26.0 °F 22.6 °F 67% 30.35 in 10.0 mi NW 6.9 mph - N/A   Mostly Cloudy
3:35 PM 32.5 °F 26.2 °F 23.4 °F 69% 30.35 in 10.0 mi NW 6.9 mph - N/A   Overcast
3:55 PM 33.1 °F 26.9 °F 23.4 °F 67% 30.35 in 10.0 mi NW 6.9 mph - N/A   Overcast
4:15 PM 32.2 °F 25.8 °F 23.7 °F 71% 30.35 in 10.0 mi NW 6.9 mph - N/A   Overcast
4:35 PM 32.0 °F 24.8 °F 23.5 °F 71% 30.35 in 10.0 mi NNW 8.1 mph - N/A   Mostly Cloudy
4:55 PM 32.0 °F 24.8 °F 23.4 °F 70% 30.35 in 10.0 mi NW 8.1 mph - N/A   Scattered Clouds
5:15 PM 31.8 °F 24.6 °F 23.4 °F 71% 30.35 in 10.0 mi NW 8.1 mph - N/A   Clear
5:35 PM 31.1 °F 23.7 °F 23.0 °F 72% 30.35 in 10.0 mi NNW 8.1 mph - N/A   Clear
5:55 PM 30.2 °F 23.4 °F 22.8 °F 74% 30.36 in 10.0 mi NW 6.9 mph - N/A   Clear
6:15 PM 29.1 °F 23.0 °F 22.1 °F 75% 30.36 in 10.0 mi NNW 5.8 mph - N/A   Clear
6:35 PM 29.1 °F 25.4 °F 21.4 °F 73% 30.35 in 10.0 mi NNW 3.5 mph - N/A   Clear
7:15 PM 28.2 °F 24.4 °F 21.2 °F 75% 30.35 in 10.0 mi NNW 3.5 mph - N/A   Clear
7:35 PM 28.0 °F 22.8 °F 21.0 °F 75% 30.34 in 10.0 mi NE 4.6 mph - N/A   Clear
7:55 PM 27.5 °F - 21.2 °F 77% 30.34 in 10.0 mi Calm Calm - N/A   Clear
8:35 PM 26.6 °F - 20.8 °F 79% 30.35 in 10.0 mi Calm Calm - N/A   Clear
8:55 PM 25.5 °F 21.3 °F 20.3 °F 81% 30.35 in 10.0 mi NW 3.5 mph - N/A   Clear
9:15 PM 24.8 °F 20.5 °F 19.9 °F 82% 30.35 in 10.0 mi NNW 3.5 mph - N/A   Clear
9:35 PM 24.3 °F - 19.4 °F 82% 30.36 in 10.0 mi Calm Calm - N/A   Clear
9:55 PM 24.1 °F 19.7 °F 19.8 °F 84% 30.36 in 10.0 mi North 3.5 mph - N/A   Clear
10:15 PM 24.1 °F 17.0 °F 19.8 °F 84% 30.36 in 10.0 mi North 5.8 mph - N/A   Clear
10:35 PM 23.9 °F 16.8 °F 19.8 °F 84% 30.35 in 10.0 mi North 5.8 mph - N/A   Clear
10:55 PM 23.9 °F 18.0 °F 19.8 °F 84% 30.35 in 10.0 mi NNE 4.6 mph - N/A   Clear
11:15 PM 23.5 °F 19.1 °F 19.4 °F 84% 30.36 in 10.0 mi North 3.5 mph - N/A   Clear
11:35 PM 22.6 °F 18.0 °F 18.9 °F 85% 30.35 in 10.0 mi North 3.5 mph - N/A   Clear
11:55 PM 23.0 °F - 19.0 °F 85% 30.35 in 10.0 mi Calm Calm - N/A   Clear